"read_dt","SO2 (ppb)","flags","PMT voltage (V)","lamp voltage (V)","lamp intensity (Hz)","internal temp (C)","react chamber temp (C)","sample flow (l/min)","pres (mmHg)","SO2 bkg (ppb)","SO2 coefficient"
2017-01-29 00:00:00,1990E-3,5C000000,-0724,0838,12254,027.2,045.4,0.434,728.4,01.19,0.508
2017-01-29 00:01:00,1937E-3,5C000000,-0724,0837,12004,027.3,045.4,0.434,728.5,01.19,0.508
2017-01-29 00:02:00,1868E-3,5C000000,-0724,0838,12067,027.2,045.4,0.433,728.4,01.19,0.508
2017-01-29 00:03:00,2003E-3,5C000000,-0724,0837,12039,027.2,045.4,0.434,728.4,01.19,0.508
2017-01-29 00:04:00,2030E-3,5C000000,-0724,0838,12035,027.2,045.4,0.433,728.3,01.19,0.508
2017-01-29 00:05:00,1913E-3,5C000000,-0724,0839,12016,027.3,045.4,0.434,728.4,01.19,0.508
2017-01-29 00:06:00,2049E-3,5C000000,-0724,0839,11885,027.2,045.4,0.433,728.4,01.19,0.508
2017-01-29 00:07:00,2092E-3,5C000000,-0724,0838,12089,027.2,045.4,0.434,728.6,01.19,0.508
2017-01-29 00:08:00,1846E-3,5C000000,-0724,0838,11908,027.2,045.4,0.433,728.6,01.19,0.508
2017-01-29 00:09:00,2001E-3,5C000000,-0724,0838,11946,027.2,045.4,0.434,728.6,01.19,0.508
2017-01-29 00:10:00,2040E-3,5C000000,-0724,0838,12071,027.2,045.4,0.433,728.4,01.19,0.508
2017-01-29 00:11:00,1924E-3,5C000000,-0724,0838,12040,027.3,045.4,0.434,728.4,01.19,0.508
2017-01-29 00:12:00,1821E-3,5C000000,-0724,0837,11941,027.2,045.4,0.433,728.6,01.19,0.508
2017-01-29 00:13:00,1916E-3,5C000000,-0724,0838,12172,027.3,045.4,0.434,728.4,01.19,0.508
2017-01-29 00:14:00,1950E-3,5C000000,-0724,0838,12208,027.2,045.4,0.433,728.6,01.19,0.508
2017-01-29 00:15:00,2031E-3,5C000000,-0724,0838,12143,027.3,045.4,0.434,728.7,01.19,0.508
2017-01-29 00:16:00,1927E-3,5C000000,-0724,0837,12027,027.2,045.4,0.434,728.8,01.19,0.508
2017-01-29 00:17:00,1932E-3,5C000000,-0724,0838,12216,027.2,045.4,0.434,729.0,01.19,0.508
2017-01-29 00:18:00,1986E-3,5C000000,-0724,0838,12152,027.2,045.4,0.434,728.9,01.19,0.508
2017-01-29 00:19:00,1904E-3,5C000000,-0724,0837,11956,027.2,045.4,0.433,729.0,01.19,0.508
2017-01-29 00:20:00,1875E-3,5C000000,-0724,0838,12105,027.2,045.4,0.434,729.0,01.19,0.508
2017-01-29 00:21:00,2081E-3,5C000000,-0724,0839,12097,027.2,045.4,0.434,728.9,01.19,0.508
2017-01-29 00:22:00,2052E-3,5C000000,-0724,0839,12054,027.3,045.4,0.434,728.9,01.19,0.508
2017-01-29 00:23:00,2010E-3,5C000000,-0724,0839,12170,027.3,045.4,0.434,728.9,01.19,0.508
2017-01-29 00:24:00,2063E-3,5C000000,-0724,0838,12056,027.2,045.4,0.433,728.8,01.19,0.508
2017-01-29 00:25:00,1931E-3,5C000000,-0724,0838,12038,027.2,045.4,0.434,728.8,01.19,0.508
2017-01-29 00:26:00,2043E-3,5C000000,-0724,0838,12068,027.2,045.4,0.433,728.8,01.19,0.508
2017-01-29 00:27:00,1914E-3,5C000000,-0724,0838,12021,027.2,045.4,0.434,728.9,01.19,0.508
2017-01-29 00:28:00,1969E-3,5C000000,-0724,0838,12015,027.2,045.4,0.433,728.8,01.19,0.508
2017-01-29 00:29:00,2003E-3,5C000000,-0724,0838,12112,027.2,045.4,0.434,728.8,01.19,0.508
2017-01-29 00:30:00,2008E-3,5C000000,-0724,0838,12022,027.2,045.4,0.434,728.8,01.19,0.508
2017-01-29 00:31:00,1936E-3,5C000000,-0724,0838,12057,027.2,045.4,0.434,728.9,01.19,0.508
2017-01-29 00:32:00,2043E-3,5C000000,-0724,0838,11946,027.2,045.4,0.434,729.0,01.19,0.508
2017-01-29 00:33:00,1953E-3,5C000000,-0724,0838,12136,027.2,045.4,0.433,729.0,01.19,0.508
2017-01-29 00:34:00,1985E-3,5C000000,-0724,0838,12011,027.2,045.4,0.434,728.9,01.19,0.508
2017-01-29 00:35:00,1896E-3,5C000000,-0724,0838,12061,027.2,045.4,0.434,728.7,01.19,0.508
2017-01-29 00:36:00,1966E-3,5C000000,-0724,0838,12077,027.2,045.4,0.434,728.9,01.19,0.508
2017-01-29 00:37:00,2047E-3,5C000000,-0724,0837,12124,027.2,045.4,0.434,728.8,01.19,0.508
2017-01-29 00:38:00,1983E-3,5C000000,-0724,0837,11979,027.2,045.4,0.434,728.8,01.19,0.508
2017-01-29 00:39:00,1957E-3,5C000000,-0724,0838,12109,027.2,045.4,0.434,729.0,01.19,0.508
2017-01-29 00:40:00,1909E-3,5C000000,-0724,0837,12116,027.2,045.4,0.434,729.1,01.19,0.508
2017-01-29 00:41:00,2014E-3,5C000000,-0724,0838,11967,027.2,045.4,0.434,729.2,01.19,0.508
2017-01-29 00:42:00,1947E-3,5C000000,-0724,0837,12066,027.2,045.4,0.434,729.1,01.19,0.508
2017-01-29 00:43:00,1930E-3,5C000000,-0724,0838,12012,027.2,045.4,0.434,729.3,01.19,0.508
2017-01-29 00:44:00,2067E-3,5C000000,-0724,0838,12002,027.2,045.4,0.434,729.3,01.19,0.508
2017-01-29 00:45:00,1895E-3,5C000000,-0724,0838,12109,027.2,045.4,0.434,729.3,01.19,0.508
2017-01-29 00:46:00,1915E-3,5C000000,-0724,0839,12102,027.2,045.4,0.434,729.3,01.19,0.508
2017-01-29 00:47:00,1886E-3,5C000000,-0724,0838,12170,027.2,045.4,0.434,729.3,01.19,0.508
2017-01-29 00:48:00,1886E-3,5C000000,-0724,0838,11930,027.2,045.4,0.434,729.4,01.19,0.508
2017-01-29 00:49:00,1979E-3,5C000000,-0724,0838,11994,027.2,045.4,0.434,729.3,01.19,0.508
2017-01-29 00:50:00,1856E-3,5C000000,-0724,0838,12153,027.2,045.4,0.434,729.3,01.19,0.508
2017-01-29 00:51:00,1997E-3,5C000000,-0724,0838,12074,027.2,045.4,0.434,729.3,01.19,0.508
2017-01-29 00:52:00,2110E-3,5C000000,-0724,0838,12033,027.2,045.4,0.434,729.2,01.19,0.508
2017-01-29 00:53:00,1990E-3,5C000000,-0724,0838,12087,027.2,045.4,0.434,729.3,01.19,0.508
2017-01-29 00:54:00,1937E-3,5C000000,-0724,0838,11993,027.2,045.4,0.434,729.3,01.19,0.508
2017-01-29 00:55:00,1838E-3,5C000000,-0724,0838,11966,027.2,045.4,0.434,729.4,01.19,0.508
2017-01-29 00:56:00,1994E-3,5C000000,-0724,0839,12048,027.2,045.4,0.434,729.3,01.19,0.508
2017-01-29 00:57:00,2024E-3,5C000000,-0724,0838,11994,027.2,045.4,0.434,729.4,01.19,0.508
2017-01-29 00:58:00,1933E-3,5C000000,-0724,0838,11978,027.2,045.4,0.434,729.4,01.19,0.508
2017-01-29 00:59:00,2037E-3,5C000000,-0724,0838,12097,027.2,045.4,0.434,729.3,01.19,0.508
2017-01-29 01:00:00,2167E-3,5C000000,-0724,0837,12063,027.2,045.4,0.434,729.3,01.19,0.508
2017-01-29 01:01:00,1884E-3,5C000000,-0724,0838,12109,027.2,045.4,0.434,729.4,01.19,0.508
2017-01-29 01:02:00,2043E-3,5C000000,-0724,0837,12125,027.3,045.4,0.434,729.4,01.19,0.508
2017-01-29 01:03:00,1898E-3,5C000000,-0724,0837,12083,027.3,045.4,0.434,729.3,01.19,0.508
2017-01-29 01:04:00,2099E-3,5C000000,-0724,0838,11997,027.3,045.4,0.434,729.4,01.19,0.508
2017-01-29 01:05:00,1830E-3,5C000000,-0724,0837,11945,027.3,045.4,0.434,729.4,01.19,0.508
2017-01-29 01:06:00,2047E-3,5C000000,-0724,0838,11917,027.3,045.4,0.434,729.3,01.19,0.508
2017-01-29 01:07:00,1949E-3,5C000000,-0724,0838,12120,027.3,045.4,0.434,729.4,01.19,0.508
2017-01-29 01:08:00,2066E-3,5C000000,-0724,0838,12036,027.3,045.4,0.434,729.4,01.19,0.508
2017-01-29 01:09:00,2077E-3,5C000000,-0724,0838,11985,027.3,045.4,0.434,729.3,01.19,0.508
2017-01-29 01:10:00,1910E-3,5C000000,-0724,0837,12008,027.3,045.4,0.434,729.3,01.19,0.508
2017-01-29 01:11:00,1951E-3,5C000000,-0724,0838,12116,027.3,045.4,0.434,729.3,01.19,0.508
2017-01-29 01:12:00,2070E-3,5C000000,-0724,0838,12029,027.3,045.4,0.434,729.2,01.19,0.508
2017-01-29 01:13:00,2048E-3,5C000000,-0724,0837,12115,027.3,045.4,0.433,729.3,01.19,0.508
2017-01-29 01:14:00,2007E-3,5C000000,-0724,0838,12165,027.3,045.4,0.434,729.3,01.19,0.508
2017-01-29 01:15:00,1935E-3,5C000000,-0724,0839,12119,027.3,045.4,0.433,729.3,01.19,0.508
2017-01-29 01:16:00,1948E-3,5C000000,-0724,0838,12160,027.3,045.4,0.434,729.4,01.19,0.508
2017-01-29 01:17:00,1971E-3,5C000000,-0724,0838,12038,027.3,045.4,0.434,729.4,01.19,0.508
2017-01-29 01:18:00,2060E-3,5C000000,-0724,0837,11991,027.3,045.4,0.434,729.4,01.19,0.508
2017-01-29 01:19:00,1850E-3,5C000000,-0724,0839,11913,027.4,045.4,0.434,729.5,01.19,0.508
2017-01-29 01:20:00,2134E-3,5C000000,-0724,0838,12015,027.4,045.4,0.434,729.4,01.19,0.508
2017-01-29 01:21:00,1887E-3,5C000000,-0724,0838,12031,027.4,045.4,0.434,729.5,01.19,0.508
2017-01-29 01:22:00,2003E-3,5C000000,-0724,0838,12049,027.4,045.4,0.434,729.5,01.19,0.508
2017-01-29 01:23:00,1930E-3,5C000000,-0724,0838,12112,027.4,045.4,0.434,729.5,01.19,0.508
2017-01-29 01:24:00,2059E-3,5C000000,-0724,0839,12031,027.4,045.4,0.434,729.5,01.19,0.508
2017-01-29 01:25:00,2128E-3,5C000000,-0724,0838,12002,027.4,045.4,0.434,729.5,01.19,0.508
2017-01-29 01:26:00,2071E-3,5C000000,-0724,0838,11958,027.4,045.4,0.434,729.5,01.19,0.508
2017-01-29 01:27:00,2028E-3,5C000000,-0724,0839,12024,027.4,045.4,0.433,729.5,01.19,0.508
2017-01-29 01:28:00,2019E-3,5C000000,-0724,0837,12029,027.4,045.4,0.434,729.5,01.19,0.508
2017-01-29 01:29:00,1994E-3,5C000000,-0724,0838,12013,027.4,045.4,0.434,729.5,01.19,0.508
2017-01-29 01:30:00,2097E-3,5C000000,-0724,0838,12022,027.4,045.4,0.434,729.6,01.19,0.508
2017-01-29 01:31:00,1901E-3,5C000000,-0724,0839,12029,027.4,045.4,0.433,729.6,01.19,0.508
2017-01-29 01:32:00,2017E-3,5C000000,-0724,0839,12263,027.4,045.4,0.434,729.5,01.19,0.508
2017-01-29 01:33:00,2024E-3,5C000000,-0724,0837,12066,027.5,045.4,0.433,729.4,01.19,0.508
2017-01-29 01:34:00,1935E-3,5C000000,-0724,0838,12026,027.5,045.4,0.434,729.6,01.19,0.508
2017-01-29 01:35:00,2008E-3,5C000000,-0724,0838,12055,027.5,045.4,0.433,729.6,01.19,0.508
2017-01-29 01:36:00,1944E-3,5C000000,-0724,0838,12062,027.5,045.4,0.434,729.6,01.19,0.508
2017-01-29 01:37:00,2041E-3,5C000000,-0724,0838,11989,027.5,045.4,0.433,729.4,01.19,0.508
2017-01-29 01:38:00,1999E-3,5C000000,-0724,0838,12044,027.5,045.4,0.434,729.6,01.19,0.508
2017-01-29 01:39:00,2082E-3,5C000000,-0724,0838,12116,027.5,045.4,0.433,729.6,01.19,0.508
2017-01-29 01:40:00,1975E-3,5C000000,-0724,0838,12009,027.5,045.4,0.434,729.5,01.19,0.508
2017-01-29 01:41:00,1913E-3,5C000000,-0724,0838,12090,027.5,045.4,0.433,729.5,01.19,0.508
2017-01-29 01:42:00,1954E-3,5C000000,-0724,0838,12132,027.5,045.4,0.433,729.5,01.19,0.508
2017-01-29 01:43:00,2097E-3,5C000000,-0724,0838,12106,027.5,045.4,0.433,729.5,01.19,0.508
2017-01-29 01:44:00,2077E-3,5C000000,-0724,0838,12034,027.6,045.4,0.433,729.6,01.19,0.508
2017-01-29 01:45:00,1959E-3,5C000000,-0724,0837,12068,027.6,045.4,0.434,729.6,01.19,0.508
2017-01-29 01:46:00,1911E-3,5C000000,-0724,0838,12116,027.6,045.4,0.433,729.7,01.19,0.508
2017-01-29 01:47:00,2007E-3,5C000000,-0724,0838,12154,027.6,045.4,0.434,729.7,01.19,0.508
2017-01-29 01:48:00,1955E-3,5C000000,-0724,0838,12078,027.6,045.4,0.433,729.7,01.19,0.508
2017-01-29 01:49:00,1985E-3,5C000000,-0724,0838,12175,027.6,045.4,0.434,729.7,01.19,0.508
2017-01-29 01:50:00,2036E-3,5C000000,-0724,0838,11983,027.6,045.4,0.433,729.7,01.19,0.508
2017-01-29 01:51:00,1888E-3,5C000000,-0724,0838,11947,027.6,045.4,0.434,729.7,01.19,0.508
2017-01-29 01:52:00,1844E-3,5C000000,-0724,0839,12014,027.6,045.4,0.433,729.7,01.19,0.508
2017-01-29 01:53:00,1890E-3,5C000000,-0724,0838,11965,027.6,045.4,0.433,729.7,01.19,0.508
2017-01-29 01:54:00,2091E-3,5C000000,-0724,0839,12035,027.6,045.4,0.433,729.6,01.19,0.508
2017-01-29 01:55:00,2222E-3,5C000000,-0724,0838,11966,027.6,045.4,0.433,729.6,01.19,0.508
2017-01-29 01:56:00,2098E-3,5C000000,-0724,0838,12073,027.6,045.4,0.434,729.7,01.19,0.508
2017-01-29 01:57:00,2033E-3,5C000000,-0724,0839,12095,027.6,045.4,0.433,729.6,01.19,0.508
2017-01-29 01:58:00,2001E-3,5C000000,-0724,0839,12171,027.7,045.4,0.433,729.6,01.19,0.508
2017-01-29 01:59:00,1958E-3,5C000000,-0724,0838,11925,027.7,045.4,0.433,729.5,01.19,0.508
2017-01-29 02:00:00,1949E-3,5C000000,-0724,0840,11986,027.7,045.4,0.433,729.6,01.19,0.508
2017-01-29 02:01:00,1883E-3,5C000000,-0724,0838,12019,027.7,045.4,0.433,729.5,01.19,0.508
2017-01-29 02:02:00,2063E-3,5C000000,-0724,0838,12044,027.7,045.4,0.433,729.5,01.19,0.508
2017-01-29 02:03:00,1923E-3,5C000000,-0724,0839,11949,027.7,045.4,0.433,729.5,01.19,0.508
2017-01-29 02:04:00,1914E-3,5C000000,-0724,0838,12024,027.7,045.4,0.433,729.6,01.19,0.508
2017-01-29 02:05:00,1969E-3,5C000000,-0724,0838,12054,027.7,045.4,0.433,729.5,01.19,0.508
2017-01-29 02:06:00,2038E-3,5C000000,-0724,0838,11906,027.7,045.4,0.433,729.6,01.19,0.508
2017-01-29 02:07:00,2063E-3,5C000000,-0724,0839,12064,027.7,045.4,0.433,729.6,01.19,0.508
2017-01-29 02:08:00,1981E-3,5C000000,-0724,0838,12055,027.7,045.4,0.433,729.5,01.19,0.508
2017-01-29 02:09:00,2033E-3,5C000000,-0724,0839,12052,027.7,045.4,0.433,729.5,01.19,0.508
2017-01-29 02:10:00,1966E-3,5C000000,-0724,0838,11985,027.7,045.4,0.433,729.4,01.19,0.508
2017-01-29 02:11:00,1824E-3,5C000000,-0724,0838,12079,027.7,045.4,0.433,729.4,01.19,0.508
2017-01-29 02:12:00,2114E-3,5C000000,-0724,0838,12117,027.7,045.4,0.433,729.1,01.19,0.508
2017-01-29 02:13:00,2001E-3,5C000000,-0724,0838,12103,027.7,045.4,0.433,729.2,01.19,0.508
2017-01-29 02:14:00,1841E-3,5C000000,-0724,0838,12065,027.7,045.4,0.433,729.3,01.19,0.508
2017-01-29 02:15:00,1940E-3,5C000000,-0724,0838,12016,027.7,045.4,0.433,729.3,01.19,0.508
2017-01-29 02:16:00,1970E-3,5C000000,-0724,0838,12078,027.8,045.4,0.433,729.3,01.19,0.508
2017-01-29 02:17:00,2057E-3,5C000000,-0724,0839,12107,027.7,045.4,0.433,729.1,01.19,0.508
2017-01-29 02:18:00,2014E-3,5C000000,-0724,0838,11961,027.8,045.4,0.433,728.9,01.19,0.508
2017-01-29 02:19:00,2064E-3,5C000000,-0724,0838,11957,027.8,045.4,0.432,728.9,01.19,0.508
2017-01-29 02:20:00,2087E-3,5C000000,-0724,0838,12093,027.8,045.4,0.433,728.8,01.19,0.508
2017-01-29 02:21:00,1822E-3,5C000000,-0724,0838,12075,027.8,045.4,0.432,729.0,01.19,0.508
2017-01-29 02:22:00,2008E-3,5C000000,-0724,0838,12076,027.8,045.4,0.433,729.0,01.19,0.508
2017-01-29 02:23:00,1943E-3,5C000000,-0724,0838,12127,027.8,045.4,0.433,729.2,01.19,0.508
2017-01-29 02:24:00,2119E-3,5C000000,-0724,0839,11983,027.8,045.4,0.432,729.2,01.19,0.508
2017-01-29 02:25:00,1954E-3,5C000000,-0724,0839,12076,027.8,045.4,0.433,729.3,01.19,0.508
2017-01-29 02:26:00,1884E-3,5C000000,-0724,0839,12108,027.8,045.4,0.432,729.1,01.19,0.508
2017-01-29 02:27:00,1982E-3,5C000000,-0724,0838,11981,027.8,045.4,0.433,729.0,01.19,0.508
2017-01-29 02:28:00,1993E-3,5C000000,-0724,0838,11931,027.8,045.4,0.433,729.2,01.19,0.508
2017-01-29 02:29:00,2000E-3,5C000000,-0724,0839,11995,027.8,045.4,0.432,729.0,01.19,0.508
2017-01-29 02:30:00,1985E-3,5C000000,-0724,0838,12049,027.8,045.4,0.433,729.0,01.19,0.508
2017-01-29 02:31:00,1893E-3,5C000000,-0724,0837,11981,027.8,045.4,0.433,729.2,01.19,0.508
2017-01-29 02:32:00,2072E-3,5C000000,-0724,0838,12088,027.8,045.4,0.433,729.0,01.19,0.508
2017-01-29 02:33:00,1983E-3,5C000000,-0724,0838,12107,027.8,045.4,0.433,728.9,01.19,0.508
2017-01-29 02:34:00,1917E-3,5C000000,-0724,0838,12020,027.8,045.4,0.432,729.2,01.19,0.508
2017-01-29 02:35:00,1954E-3,5C000000,-0724,0838,12004,027.8,045.4,0.433,729.2,01.19,0.508
2017-01-29 02:36:00,1929E-3,5C000000,-0724,0838,12058,027.8,045.4,0.433,729.0,01.19,0.508
2017-01-29 02:37:00,2044E-3,5C000000,-0724,0838,12313,027.8,045.4,0.433,729.3,01.19,0.508
2017-01-29 02:38:00,2003E-3,5C000000,-0724,0839,11988,027.8,045.4,0.433,729.2,01.19,0.508
2017-01-29 02:39:00,1850E-3,5C000000,-0724,0838,12142,027.8,045.4,0.433,729.3,01.19,0.508
2017-01-29 02:40:00,1958E-3,5C000000,-0724,0839,12105,027.8,045.4,0.433,729.2,01.19,0.508
2017-01-29 02:41:00,2004E-3,5C000000,-0724,0838,12019,027.8,045.4,0.433,729.3,01.19,0.508
2017-01-29 02:42:00,1913E-3,5C000000,-0724,0838,11958,027.8,045.4,0.433,729.3,01.19,0.508
2017-01-29 02:43:00,2006E-3,5C000000,-0724,0838,12042,027.8,045.4,0.433,729.4,01.19,0.508
2017-01-29 02:44:00,2003E-3,5C000000,-0724,0839,12135,027.8,045.4,0.433,729.3,01.19,0.508
2017-01-29 02:45:00,1965E-3,5C000000,-0724,0839,12174,027.8,045.4,0.432,729.2,01.19,0.508
2017-01-29 02:46:00,1907E-3,5C000000,-0724,0838,11957,027.8,045.4,0.433,729.3,01.19,0.508
2017-01-29 02:47:00,1932E-3,5C000000,-0724,0838,11929,027.8,045.4,0.433,729.3,01.19,0.508
2017-01-29 02:48:00,1992E-3,5C000000,-0724,0839,12082,027.8,045.4,0.433,729.3,01.19,0.508
2017-01-29 02:49:00,2091E-3,5C000000,-0724,0838,12049,027.8,045.4,0.433,729.3,01.19,0.508
2017-01-29 02:50:00,2088E-3,5C000000,-0724,0839,12122,027.8,045.4,0.432,729.3,01.19,0.508
2017-01-29 02:51:00,1883E-3,5C000000,-0724,0838,12068,027.8,045.4,0.433,729.3,01.19,0.508
2017-01-29 02:52:00,2043E-3,5C000000,-0724,0839,12046,027.8,045.4,0.433,729.2,01.19,0.508
2017-01-29 02:53:00,2017E-3,5C000000,-0724,0839,12207,027.8,045.4,0.432,729.2,01.19,0.508
2017-01-29 02:54:00,2091E-3,5C000000,-0724,0839,12048,027.8,045.4,0.433,729.3,01.19,0.508
2017-01-29 02:55:00,2014E-3,5C000000,-0724,0838,12045,027.8,045.4,0.433,729.4,01.19,0.508
2017-01-29 02:56:00,1986E-3,5C000000,-0724,0838,12064,027.8,045.4,0.432,729.4,01.19,0.508
2017-01-29 02:57:00,2013E-3,5C000000,-0724,0839,11967,027.8,045.4,0.433,729.3,01.19,0.508
2017-01-29 02:58:00,1992E-3,5C000000,-0724,0839,12070,027.8,045.4,0.433,729.1,01.19,0.508
2017-01-29 02:59:00,2014E-3,5C000000,-0724,0839,12103,027.8,045.4,0.433,729.2,01.19,0.508
2017-01-29 03:00:00,1945E-3,5C000000,-0724,0838,11970,027.8,045.4,0.433,729.3,01.19,0.508
2017-01-29 03:01:00,1970E-3,5C000000,-0724,0838,12012,027.8,045.4,0.433,729.5,01.19,0.508
2017-01-29 03:02:00,2066E-3,5C000000,-0724,0838,12181,027.8,045.4,0.433,729.3,01.19,0.508
2017-01-29 03:03:00,1950E-3,5C000000,-0724,0838,12123,027.8,045.4,0.433,729.3,01.19,0.508
2017-01-29 03:04:00,2077E-3,5C000000,-0724,0838,12049,027.8,045.4,0.432,729.2,01.19,0.508
2017-01-29 03:05:00,2074E-3,5C000000,-0724,0839,12111,027.8,045.4,0.433,729.0,01.19,0.508
2017-01-29 03:06:00,2202E-3,5C000000,-0724,0839,11899,027.8,045.4,0.432,729.1,01.19,0.508
2017-01-29 03:07:00,1946E-3,5C000000,-0724,0839,12077,027.8,045.4,0.433,729.2,01.19,0.508
2017-01-29 03:08:00,1987E-3,5C000000,-0724,0839,12074,027.8,045.4,0.433,729.3,01.19,0.508
2017-01-29 03:09:00,2081E-3,5C000000,-0724,0838,12047,027.8,045.4,0.432,729.3,01.19,0.508
2017-01-29 03:10:00,1963E-3,5C000000,-0724,0838,11965,027.8,045.4,0.433,729.3,01.19,0.508
2017-01-29 03:11:00,2120E-3,5C000000,-0724,0839,11931,027.8,045.4,0.433,729.4,01.19,0.508
2017-01-29 03:12:00,2025E-3,5C000000,-0724,0838,11978,027.8,045.5,0.433,729.4,01.19,0.508
2017-01-29 03:13:00,1927E-3,5C000000,-0724,0839,12067,027.8,045.4,0.433,729.4,01.19,0.508
2017-01-29 03:14:00,1945E-3,5C000000,-0724,0838,12025,027.8,045.4,0.433,729.4,01.19,0.508
2017-01-29 03:15:00,1991E-3,5C000000,-0724,0839,12047,027.8,045.4,0.433,729.4,01.19,0.508
2017-01-29 03:16:00,2009E-3,5C000000,-0724,0838,11922,027.8,045.4,0.433,729.4,01.19,0.508
2017-01-29 03:17:00,2024E-3,5C000000,-0724,0838,11954,027.8,045.4,0.433,729.4,01.19,0.508
2017-01-29 03:18:00,2041E-3,5C000000,-0724,0838,12027,027.8,045.4,0.433,729.4,01.19,0.508
2017-01-29 03:19:00,2034E-3,5C000000,-0724,0839,12163,027.8,045.5,0.432,729.4,01.19,0.508
2017-01-29 03:20:00,1971E-3,5C000000,-0724,0839,12014,027.9,045.4,0.433,729.4,01.19,0.508
2017-01-29 03:21:00,2011E-3,5C000000,-0724,0839,12025,027.9,045.4,0.433,729.4,01.19,0.508
2017-01-29 03:22:00,2033E-3,5C000000,-0724,0839,12022,027.8,045.4,0.433,729.3,01.19,0.508
2017-01-29 03:23:00,2040E-3,5C000000,-0724,0839,12112,027.9,045.4,0.433,729.3,01.19,0.508
2017-01-29 03:24:00,2068E-3,5C000000,-0724,0838,12051,027.9,045.4,0.432,729.2,01.19,0.508
2017-01-29 03:25:00,1903E-3,5C000000,-0724,0838,12036,027.9,045.5,0.433,729.3,01.19,0.508
2017-01-29 03:26:00,2005E-3,5C000000,-0724,0839,12074,027.9,045.5,0.432,729.1,01.19,0.508
2017-01-29 03:27:00,2002E-3,5C000000,-0724,0839,11957,027.9,045.4,0.433,729.2,01.19,0.508
2017-01-29 03:28:00,1953E-3,5C000000,-0724,0839,12018,027.9,045.4,0.433,729.0,01.19,0.508
2017-01-29 03:29:00,2081E-3,5C000000,-0724,0840,12104,027.9,045.4,0.432,729.0,01.19,0.508
2017-01-29 03:30:00,1987E-3,5C000000,-0724,0839,12125,027.9,045.4,0.433,729.0,01.19,0.508
2017-01-29 03:31:00,1926E-3,5C000000,-0724,0837,11984,027.9,045.4,0.432,729.0,01.19,0.508
2017-01-29 03:32:00,1860E-3,5C000000,-0724,0839,11822,027.9,045.4,0.433,728.9,01.19,0.508
2017-01-29 03:33:00,1902E-3,5C000000,-0724,0839,11943,027.9,045.4,0.432,729.0,01.19,0.508
2017-01-29 03:34:00,1879E-3,5C000000,-0724,0838,11892,027.9,045.4,0.433,729.0,01.19,0.508
2017-01-29 03:35:00,1948E-3,5C000000,-0724,0840,12079,027.9,045.4,0.433,729.0,01.19,0.508
2017-01-29 03:36:00,1982E-3,5C000000,-0724,0838,12036,027.9,045.4,0.432,729.0,01.19,0.508
2017-01-29 03:37:00,1887E-3,5C000000,-0724,0838,12078,027.9,045.4,0.433,729.1,01.19,0.508
2017-01-29 03:38:00,2085E-3,5C000000,-0724,0839,12023,027.9,045.4,0.433,729.1,01.19,0.508
2017-01-29 03:39:00,2012E-3,5C000000,-0724,0839,12019,027.9,045.4,0.432,729.0,01.19,0.508
2017-01-29 03:40:00,1972E-3,5C000000,-0724,0838,12119,027.9,045.4,0.433,729.0,01.19,0.508
2017-01-29 03:41:00,1969E-3,5C000000,-0724,0838,12140,027.9,045.4,0.433,729.0,01.19,0.508
2017-01-29 03:42:00,1881E-3,5C000000,-0724,0838,11999,027.9,045.4,0.432,729.0,01.19,0.508
2017-01-29 03:43:00,1825E-3,5C000000,-0724,0838,12040,027.9,045.5,0.433,729.1,01.19,0.508
2017-01-29 03:44:00,1937E-3,5C000000,-0724,0838,12095,027.9,045.5,0.432,729.0,01.19,0.508
2017-01-29 03:45:00,2001E-3,5C000000,-0724,0839,12150,027.9,045.4,0.433,729.2,01.19,0.508
2017-01-29 03:46:00,1880E-3,5C000000,-0724,0838,11972,027.9,045.4,0.433,729.0,01.19,0.508
2017-01-29 03:47:00,1848E-3,5C000000,-0724,0838,12106,027.9,045.4,0.432,729.2,01.19,0.508
2017-01-29 03:48:00,1985E-3,5C000000,-0724,0838,12062,027.9,045.4,0.433,729.3,01.19,0.508
2017-01-29 03:49:00,2008E-3,5C000000,-0724,0838,12068,027.9,045.4,0.433,729.3,01.19,0.508
2017-01-29 03:50:00,1985E-3,5C000000,-0724,0838,11997,027.9,045.4,0.433,729.4,01.19,0.508
2017-01-29 03:51:00,1950E-3,5C000000,-0724,0839,12053,027.9,045.4,0.433,729.5,01.19,0.508
2017-01-29 03:52:00,2001E-3,5C000000,-0724,0839,12040,027.9,045.4,0.433,729.5,01.19,0.508
2017-01-29 03:53:00,2029E-3,5C000000,-0724,0839,12114,027.9,045.4,0.432,729.5,01.19,0.508
2017-01-29 03:54:00,1982E-3,5C000000,-0724,0839,12016,027.9,045.4,0.433,729.7,01.19,0.508
2017-01-29 03:55:00,1987E-3,5C000000,-0724,0839,12047,027.9,045.4,0.433,729.6,01.19,0.508
2017-01-29 03:56:00,1992E-3,5C000000,-0724,0839,12075,027.9,045.4,0.433,729.7,01.19,0.508
2017-01-29 03:57:00,1965E-3,5C000000,-0724,0838,12107,027.8,045.4,0.433,729.7,01.19,0.508
2017-01-29 03:58:00,2003E-3,5C000000,-0724,0839,12116,027.9,045.4,0.433,729.7,01.19,0.508
2017-01-29 03:59:00,2059E-3,5C000000,-0724,0839,11961,027.9,045.4,0.433,729.6,01.19,0.508
2017-01-29 04:00:00,1824E-3,5C000000,-0724,0838,12033,027.9,045.4,0.433,729.7,01.19,0.508
2017-01-29 04:01:00,2030E-3,5C000000,-0724,0838,12079,027.9,045.4,0.433,729.8,01.19,0.508
2017-01-29 04:02:00,2056E-3,5C000000,-0724,0838,12051,027.9,045.4,0.433,729.8,01.19,0.508
2017-01-29 04:03:00,1930E-3,5C000000,-0724,0838,12069,027.9,045.4,0.433,729.8,01.19,0.508
2017-01-29 04:04:00,2090E-3,5C000000,-0724,0839,11954,027.9,045.5,0.433,729.8,01.19,0.508
2017-01-29 04:05:00,2133E-3,5C000000,-0724,0838,12070,027.9,045.5,0.433,729.9,01.19,0.508
2017-01-29 04:06:00,2005E-3,5C000000,-0724,0839,12015,027.9,045.4,0.433,729.9,01.19,0.508
2017-01-29 04:07:00,2154E-3,5C000000,-0724,0838,12133,027.9,045.4,0.432,729.9,01.19,0.508
2017-01-29 04:08:00,1989E-3,5C000000,-0724,0838,12127,027.9,045.5,0.433,729.8,01.19,0.508
2017-01-29 04:09:00,1975E-3,5C000000,-0724,0838,12041,027.9,045.4,0.433,729.8,01.19,0.508
2017-01-29 04:10:00,2039E-3,5C000000,-0724,0839,12120,027.9,045.4,0.433,729.7,01.19,0.508
2017-01-29 04:11:00,1919E-3,5C000000,-0724,0839,12164,027.9,045.4,0.433,729.7,01.19,0.508
2017-01-29 04:12:00,2050E-3,5C000000,-0724,0838,12158,027.9,045.4,0.432,729.6,01.19,0.508
2017-01-29 04:13:00,1875E-3,5C000000,-0724,0839,11883,027.9,045.4,0.433,729.5,01.19,0.508
2017-01-29 04:14:00,2003E-3,5C000000,-0724,0838,11997,027.9,045.4,0.433,729.5,01.19,0.508
2017-01-29 04:15:00,2003E-3,5C000000,-0724,0839,12093,027.9,045.4,0.433,729.5,01.19,0.508
2017-01-29 04:16:00,2054E-3,5C000000,-0724,0838,12029,027.9,045.4,0.433,729.6,01.19,0.508
2017-01-29 04:17:00,2018E-3,5C000000,-0724,0838,11952,028.0,045.4,0.432,729.7,01.19,0.508
2017-01-29 04:18:00,2113E-3,5C000000,-0724,0839,12097,028.0,045.4,0.433,729.7,01.19,0.508
2017-01-29 04:19:00,1965E-3,5C000000,-0724,0839,12094,028.0,045.4,0.433,729.7,01.19,0.508
2017-01-29 04:20:00,1954E-3,5C000000,-0724,0838,12072,028.0,045.4,0.433,729.8,01.19,0.508